Yellow Mule RAWS (NWS)

Jump to table bottom
Date/Time Wind Direction Wind Speed knots Wind Gust knots RH % Accumulated Precip Inches Air Temp Fahrenheit
2022-01-26 17:04 SSW 15 20 43 0.09 18
2022-01-26 16:04 SW 13 19 38 0.09 20
2022-01-26 15:04 SW 14 23 36 0.09 21
2022-01-26 14:04 SSW 12 20 35 0.09 22
2022-01-26 13:04 SSW 13 20 34 0.09 22
2022-01-26 12:04 SSW 9 17 32 0.09 23
2022-01-26 11:04 SW 11 17 35 0.09 18
2022-01-26 10:04 SW 15 17 37 0.09 16
2022-01-26 09:04 SW 14 17 40 0.09 14
2022-01-26 08:04 SSW 12 14 42 0.09 14
2022-01-26 07:04 SW 11 14 36 0.09 15
2022-01-26 06:04 SW 12 20 39 0.09 15
2022-01-26 05:04 SW 16 19 45 0.09 14
2022-01-26 04:04 SW 14 17 45 0.09 14
2022-01-26 03:04 SW 13 19 48 0.09 13
2022-01-26 02:04 SW 16 20 49 0.09 13
2022-01-26 01:04 SW 11 18 54 0.09 12
2022-01-26 00:04 SW 13 18 55 0.09 12
2022-01-25 23:04 SSW 10 17 63 0.09 11
2022-01-25 22:04 SSW 13 20 67 0.09 10
2022-01-25 21:04 SW 16 19 73 0.09 10
2022-01-25 20:04 SW 14 17 78 0.09 9
2022-01-25 19:04 SW 14 18 80 0.09 8
2022-01-25 18:04 SSW 11 16 81 0.09 8
2022-01-25 17:04 SW 10 17 80 0.09 10
2022-01-25 16:04 SW 14 17 77 0.09 11
2022-01-25 15:04 SSW 11 16 75 0.09 12
2022-01-25 14:04 SW 6 11 78 0.09 13
2022-01-25 13:04 SSW 7 10 81 0.09 13
2022-01-25 12:04 WSW 3 6 81 0.08 12
2022-01-25 11:04 NNW 3 4 81 0.08 13
2022-01-25 10:04 N 3 6 84 0.08 11
2022-01-25 09:04 0 9 84 0.08 6
2022-01-25 08:04 NNW 6 12 85 0.08 7
2022-01-25 07:04 NNW 7 11 85 0.08 8
2022-01-25 06:04 N 6 15 85 0.08 8
2022-01-25 05:04 N 6 12 85 0.08 8
2022-01-25 04:04 N 10 13 85 0.08 8
2022-01-25 03:04 NNW 9 11 86 0.08 9
2022-01-25 02:04 NNW 7 11 86 0.08 9
2022-01-25 01:04 NNW 8 13 86 0.08 10
2022-01-25 00:04 N 8 17 87 0.08 10
2022-01-24 23:04 N 10 15 87 0.08 11
2022-01-24 22:04 NNE 6 17 88 0.08 12
2022-01-24 21:04 N 11 18 88 0.08 12
2022-01-24 20:04 NNE 6 10 88 0.08 13
2022-01-24 19:04 NNE 5 9 89 0.08 13
2022-01-24 18:04 N 3 6 90 0.08 13
2022-01-24 17:04 NNE 2 4 88 0.08 15
2022-01-24 16:04 N 3 3 83 0.08 16